Time,TemperatureF,DewpointF,PressureIn,WindDirection,WindDirectionDegrees,WindSpeedMPH,WindSpeedGustMPH,Humidity,HourlyPrecipIn,Conditions,Clouds,dailyrainin,SoftwareType,DateUTC
2013-05-17 00:03:00,71.5,60.0,29.95,South,186,0.0,8.0,67,0.00,,---,0.00,VWS V14.01,2013-05-17 05:03:00,
2013-05-17 00:10:00,71.3,59.8,29.95,SSW,207,0.0,8.0,67,0.00,,---,0.00,VWS V14.01,2013-05-17 05:10:00,
2013-05-17 00:18:00,71.1,60.0,29.95,SW,223,2.0,5.0,68,0.00,,---,0.00,VWS V14.01,2013-05-17 05:18:00,
2013-05-17 00:25:00,70.9,59.8,29.95,South,182,2.0,6.0,68,0.00,,---,0.00,VWS V14.01,2013-05-17 05:25:00,
2013-05-17 00:33:00,70.8,59.7,29.95,South,178,6.0,6.0,68,0.00,,---,0.00,VWS V14.01,2013-05-17 05:33:00,
2013-05-17 00:40:00,70.5,59.4,29.95,South,174,2.0,8.0,68,0.00,,---,0.00,VWS V14.01,2013-05-17 05:40:00,
2013-05-17 00:48:00,70.3,59.7,29.95,SW,228,4.0,9.0,69,0.00,,---,0.00,VWS V14.01,2013-05-17 05:48:00,
2013-05-17 00:55:00,70.1,59.5,29.94,SSW,204,0.0,9.0,69,0.00,,---,0.00,VWS V14.01,2013-05-17 05:55:00,
2013-05-17 01:03:00,69.8,59.2,29.95,SE,145,0.0,7.0,69,0.00,,---,0.00,VWS V14.01,2013-05-17 06:03:00,
2013-05-17 01:10:00,69.6,59.0,29.94,SSW,194,0.0,7.0,69,0.00,,---,0.00,VWS V14.01,2013-05-17 06:10:00,
2013-05-17 01:18:00,69.4,59.2,29.94,South,185,0.0,5.0,70,0.00,,---,0.00,VWS V14.01,2013-05-17 06:18:00,
2013-05-17 01:26:00,69.2,59.0,29.94,SSW,211,0.0,5.0,70,0.00,,---,0.00,VWS V14.01,2013-05-17 06:26:00,
2013-05-17 01:33:00,69.0,58.8,29.94,SSW,200,1.0,2.0,70,0.00,,---,0.00,VWS V14.01,2013-05-17 06:33:00,
2013-05-17 01:41:00,68.7,58.9,29.94,SW,217,4.0,4.0,71,0.00,,---,0.00,VWS V14.01,2013-05-17 06:41:00,
2013-05-17 01:48:00,68.5,59.1,29.94,SW,225,0.0,3.0,72,0.00,,---,0.00,VWS V14.01,2013-05-17 06:48:00,
2013-05-17 01:56:00,68.3,58.9,29.94,SW,225,0.0,3.0,72,0.00,,---,0.00,VWS V14.01,2013-05-17 06:56:00,
2013-05-17 02:03:00,68.0,58.7,29.94,SSW,192,0.0,2.0,72,0.00,,---,0.00,VWS V14.01,2013-05-17 07:03:00,
2013-05-17 02:11:00,67.9,58.9,29.94,SSW,199,1.0,4.0,73,0.00,,---,0.00,VWS V14.01,2013-05-17 07:11:00,
2013-05-17 02:18:00,67.7,58.7,29.94,South,176,0.0,4.0,73,0.00,,---,0.00,VWS V14.01,2013-05-17 07:18:00,
2013-05-17 02:26:00,67.6,58.7,29.94,SSW,205,0.0,4.0,73,0.00,,---,0.00,VWS V14.01,2013-05-17 07:26:00,
2013-05-17 02:33:00,67.4,58.5,29.94,SSW,196,0.0,3.0,73,0.00,,---,0.00,VWS V14.01,2013-05-17 07:33:00,
2013-05-17 02:41:00,67.3,58.7,29.94,SW,232,4.0,4.0,74,0.00,,---,0.00,VWS V14.01,2013-05-17 07:41:00,
2013-05-17 02:48:00,67.1,58.5,29.95,SW,217,1.0,5.0,74,0.00,,---,0.00,VWS V14.01,2013-05-17 07:48:00,
2013-05-17 02:56:00,67.0,58.5,29.95,SW,228,0.0,5.0,74,0.00,,---,0.00,VWS V14.01,2013-05-17 07:56:00,
2013-05-17 03:03:00,66.8,58.6,29.95,South,190,0.0,2.0,75,0.00,,---,0.00,VWS V14.01,2013-05-17 08:03:00,
2013-05-17 03:11:00,66.7,58.5,29.95,SSE,161,0.0,6.0,75,0.00,,---,0.00,VWS V14.01,2013-05-17 08:11:00,
2013-05-17 03:18:00,66.7,58.5,29.95,South,171,0.0,1.0,75,0.00,,---,0.00,VWS V14.01,2013-05-17 08:18:00,
2013-05-17 03:26:00,66.7,58.5,29.95,South,182,0.0,2.0,75,0.00,,---,0.00,VWS V14.01,2013-05-17 08:26:00,
2013-05-17 03:41:00,66.8,58.6,29.94,South,178,0.0,4.0,75,0.00,,---,0.00,VWS V14.01,2013-05-17 08:41:00,
2013-05-17 03:48:00,66.8,58.6,29.95,South,187,0.0,4.0,75,0.00,,---,0.00,VWS V14.01,2013-05-17 08:48:00,
2013-05-17 03:56:00,66.7,58.5,29.95,SSW,194,0.0,4.0,75,0.00,,---,0.00,VWS V14.01,2013-05-17 08:56:00,
2013-05-17 04:03:00,66.5,58.3,29.95,South,178,0.0,2.0,75,0.00,,---,0.00,VWS V14.01,2013-05-17 09:03:00,
2013-05-17 04:11:00,66.5,58.7,29.95,SE,137,2.0,5.0,76,0.00,,---,0.00,VWS V14.01,2013-05-17 09:11:00,
2013-05-17 04:18:00,66.3,58.5,29.95,SE,138,0.0,4.0,76,0.00,,---,0.00,VWS V14.01,2013-05-17 09:18:00,
2013-05-17 04:26:00,66.1,58.3,29.95,SSE,156,0.0,5.0,76,0.00,,---,0.00,VWS V14.01,2013-05-17 09:26:00,
2013-05-17 04:33:00,65.8,58.4,29.95,SSE,155,0.0,4.0,77,0.00,,---,0.00,VWS V14.01,2013-05-17 09:33:00,
2013-05-17 04:41:00,65.7,58.3,29.95,SE,142,0.0,4.0,77,0.00,,---,0.00,VWS V14.01,2013-05-17 09:41:00,
2013-05-17 04:56:00,64.7,58.4,29.96,SE,142,0.0,0.0,80,0.00,,---,0.00,VWS V14.01,2013-05-17 09:56:00,
2013-05-17 05:04:00,64.2,58.3,29.96,SE,142,0.0,1.0,81,0.00,,---,0.00,VWS V14.01,2013-05-17 10:04:00,
2013-05-17 05:11:00,63.8,58.2,29.96,ESE,105,1.0,4.0,82,0.00,,---,0.00,VWS V14.01,2013-05-17 10:11:00,
2013-05-17 05:19:00,63.4,58.2,29.96,ENE,78,1.0,3.0,83,0.00,,---,0.00,VWS V14.01,2013-05-17 10:19:00,
2013-05-17 05:26:00,63.2,58.0,29.96,ESE,103,0.0,3.0,83,0.00,,---,0.00,VWS V14.01,2013-05-17 10:26:00,
2013-05-17 05:34:00,62.9,58.0,29.97,ENE,59,0.0,3.0,84,0.00,,---,0.00,VWS V14.01,2013-05-17 10:34:00,
2013-05-17 05:41:00,62.6,58.0,29.97,ENE,67,0.0,3.0,85,0.00,,---,0.00,VWS V14.01,2013-05-17 10:41:00,
2013-05-17 05:49:00,62.7,58.1,29.98,ENE,67,0.0,0.0,85,0.00,,---,0.00,VWS V14.01,2013-05-17 10:49:00,
2013-05-17 05:56:00,62.6,58.0,29.98,ENE,67,0.0,0.0,85,0.00,,---,0.00,VWS V14.01,2013-05-17 10:56:00,
2013-05-17 06:04:00,62.7,58.5,29.99,SE,139,0.0,0.0,86,0.00,,---,0.00,VWS V14.01,2013-05-17 11:04:00,
2013-05-17 06:11:00,62.9,58.7,29.99,SE,140,0.0,0.0,86,0.00,,---,0.00,VWS V14.01,2013-05-17 11:11:00,
2013-05-17 06:19:00,63.1,58.8,29.99,SE,132,0.0,2.0,86,0.00,,---,0.00,VWS V14.01,2013-05-17 11:19:00,
2013-05-17 06:26:00,63.4,59.2,29.99,SSE,168,0.0,2.0,86,0.00,,---,0.00,VWS V14.01,2013-05-17 11:26:00,
2013-05-17 06:34:00,63.7,59.1,29.99,SE,135,0.0,5.0,85,0.00,,---,0.00,VWS V14.01,2013-05-17 11:34:00,
2013-05-17 06:41:00,64.0,59.1,29.99,ESE,105,0.0,5.0,84,0.00,,---,0.00,VWS V14.01,2013-05-17 11:41:00,
2013-05-17 06:49:00,64.2,59.3,29.99,East,87,0.0,2.0,84,0.00,,---,0.00,VWS V14.01,2013-05-17 11:49:00,
2013-05-17 06:56:00,64.7,59.4,30.00,East,87,0.0,2.0,83,0.00,,---,0.00,VWS V14.01,2013-05-17 11:56:00,
2013-05-17 07:04:00,65.2,59.9,30.00,East,94,0.0,2.0,83,0.00,,---,0.00,VWS V14.01,2013-05-17 12:04:00,
2013-05-17 07:11:00,65.8,60.2,30.00,SSE,150,0.0,4.0,82,0.00,,---,0.00,VWS V14.01,2013-05-17 12:11:00,
2013-05-17 07:19:00,66.6,60.6,30.00,SE,142,2.0,5.0,81,0.00,,---,0.00,VWS V14.01,2013-05-17 12:19:00,
2013-05-17 07:26:00,67.7,60.6,30.00,SSE,155,0.0,5.0,78,0.00,,---,0.00,VWS V14.01,2013-05-17 12:26:00,
2013-05-17 07:34:00,68.8,60.6,30.00,SSE,157,0.0,5.0,75,0.00,,---,0.00,VWS V14.01,2013-05-17 12:34:00,
2013-05-17 07:41:00,69.6,60.6,30.00,SSE,151,1.0,5.0,73,0.00,,---,0.00,VWS V14.01,2013-05-17 12:41:00,
2013-05-17 07:49:00,70.2,60.8,30.00,SE,139,0.0,4.0,72,0.00,,---,0.00,VWS V14.01,2013-05-17 12:49:00,
2013-05-17 07:57:00,71.0,60.7,30.00,East,86,1.0,4.0,70,0.00,,---,0.00,VWS V14.01,2013-05-17 12:57:00,
2013-05-17 08:04:00,71.1,60.8,30.00,East,80,0.0,5.0,70,0.00,,---,0.00,VWS V14.01,2013-05-17 13:04:00,
2013-05-17 08:12:00,71.4,60.3,30.00,East,88,0.0,5.0,68,0.00,,---,0.00,VWS V14.01,2013-05-17 13:12:00,
2013-05-17 08:19:00,72.1,61.0,30.00,SSE,151,1.0,4.0,68,0.00,,---,0.00,VWS V14.01,2013-05-17 13:19:00,
2013-05-17 08:27:00,71.7,60.2,30.00,SE,137,2.0,6.0,67,0.00,,---,0.00,VWS V14.01,2013-05-17 13:27:00,
2013-05-17 08:34:00,71.9,60.8,30.00,SSE,153,0.0,4.0,68,0.00,,---,0.00,VWS V14.01,2013-05-17 13:34:00,
2013-05-17 08:42:00,73.1,61.1,30.00,East,94,4.0,5.0,66,0.00,,---,0.00,VWS V14.01,2013-05-17 13:42:00,
2013-05-17 08:49:00,74.0,61.9,30.00,East,93,2.0,7.0,66,0.00,,---,0.00,VWS V14.01,2013-05-17 13:49:00,
2013-05-17 08:57:00,75.0,62.0,30.00,East,101,2.0,7.0,64,0.00,,---,0.00,VWS V14.01,2013-05-17 13:57:00,
2013-05-17 09:04:00,75.7,61.3,30.00,SE,138,7.0,10.0,61,0.00,,---,0.00,VWS V14.01,2013-05-17 14:04:00,
2013-05-17 09:12:00,76.0,62.5,29.99,SSE,157,0.0,10.0,63,0.00,,---,0.00,VWS V14.01,2013-05-17 14:12:00,
2013-05-17 09:19:00,75.8,62.8,29.99,ESE,107,2.0,7.0,64,0.00,,---,0.00,VWS V14.01,2013-05-17 14:19:00,
2013-05-17 09:27:00,76.1,62.2,29.99,ESE,121,6.0,12.0,62,0.00,,---,0.00,VWS V14.01,2013-05-17 14:27:00,
2013-05-17 10:36:00,77.7,63.2,29.99,SE,131,4.0,11.0,61,0.00,,---,0.00,VWS V14.01,2013-05-17 15:36:00,
2013-05-17 10:42:00,77.4,62.0,29.99,SE,134,0.0,11.0,59,0.00,,---,0.00,VWS V14.01,2013-05-17 15:42:00,
2013-05-17 10:51:00,77.6,63.1,29.99,SSE,159,0.0,8.0,61,0.00,,---,0.00,VWS V14.01,2013-05-17 15:51:00,
2013-05-17 10:57:00,77.8,62.8,29.99,South,187,3.0,11.0,60,0.00,,---,0.00,VWS V14.01,2013-05-17 15:57:00,
2013-05-17 11:06:00,77.8,63.3,29.99,SE,130,7.0,15.0,61,0.00,,---,0.00,VWS V14.01,2013-05-17 16:06:00,
2013-05-17 11:12:00,78.0,63.9,29.99,SE,130,13.0,15.0,62,0.00,,---,0.00,VWS V14.01,2013-05-17 16:12:00,
2013-05-17 11:21:00,77.9,63.8,29.99,South,180,10.0,13.0,62,0.00,,---,0.00,VWS V14.01,2013-05-17 16:21:00,
2013-05-17 11:27:00,77.4,63.8,29.99,SE,145,8.0,13.0,63,0.00,,---,0.00,VWS V14.01,2013-05-17 16:27:00,
2013-05-17 11:36:00,76.9,63.8,29.99,SSE,150,12.0,14.0,64,0.00,,---,0.00,VWS V14.01,2013-05-17 16:36:00,
2013-05-17 11:42:00,76.7,63.6,29.99,SSE,154,5.0,14.0,64,0.00,,---,0.00,VWS V14.01,2013-05-17 16:42:00,
2013-05-17 11:51:00,77.3,64.2,29.98,South,170,7.0,17.0,64,0.00,,---,0.00,VWS V14.01,2013-05-17 16:51:00,
2013-05-17 11:57:00,78.2,64.1,29.98,SSE,167,6.0,17.0,62,0.00,,---,0.00,VWS V14.01,2013-05-17 16:57:00,
2013-05-17 12:06:00,79.1,64.0,29.98,SE,124,7.0,13.0,60,0.00,,---,0.00,VWS V14.01,2013-05-17 17:06:00,
2013-05-17 12:12:00,79.6,63.0,29.98,SSE,163,4.0,15.0,57,0.00,,---,0.00,VWS V14.01,2013-05-17 17:12:00,
2013-05-17 12:21:00,80.2,62.6,29.98,SSE,168,8.0,14.0,55,0.00,,---,0.00,VWS V14.01,2013-05-17 17:21:00,
2013-05-17 12:27:00,80.4,62.2,29.98,SE,130,9.0,14.0,54,0.00,,---,0.00,VWS V14.01,2013-05-17 17:27:00,
2013-05-17 12:36:00,80.3,62.2,29.98,SE,136,7.0,16.0,54,0.00,,---,0.00,VWS V14.01,2013-05-17 17:36:00,
2013-05-17 12:42:00,79.9,61.8,29.98,SE,129,4.0,16.0,54,0.00,,---,0.00,VWS V14.01,2013-05-17 17:42:00,
2013-05-17 12:51:00,79.5,62.5,29.98,SSW,206,7.0,12.0,56,0.00,,---,0.00,VWS V14.01,2013-05-17 17:51:00,
2013-05-17 12:57:00,79.3,62.8,29.98,SSE,151,2.0,12.0,57,0.00,,---,0.00,VWS V14.01,2013-05-17 17:57:00,
2013-05-17 13:06:00,78.9,62.4,29.98,SE,145,10.0,16.0,57,0.00,,---,0.00,VWS V14.01,2013-05-17 18:06:00,
2013-05-17 13:12:00,78.9,62.4,29.98,SSE,148,1.0,16.0,57,0.00,,---,0.00,VWS V14.01,2013-05-17 18:12:00,
2013-05-17 13:21:00,79.3,61.8,29.97,SE,138,8.0,10.0,55,0.00,,---,0.00,VWS V14.01,2013-05-17 18:21:00,
2013-05-17 13:27:00,79.4,61.8,29.97,SE,130,6.0,16.0,55,0.00,,---,0.00,VWS V14.01,2013-05-17 18:27:00,
2013-05-17 13:36:00,79.1,62.1,29.97,South,175,7.0,17.0,56,0.00,,---,0.00,VWS V14.01,2013-05-17 18:36:00,
2013-05-17 13:42:00,78.9,62.4,29.97,SE,140,6.0,17.0,57,0.00,,---,0.00,VWS V14.01,2013-05-17 18:42:00,
2013-05-17 13:51:00,79.2,62.7,29.97,SE,133,4.0,17.0,57,0.00,,---,0.00,VWS V14.01,2013-05-17 18:51:00,
2013-05-17 13:57:00,79.3,62.3,29.97,South,186,2.0,17.0,56,0.00,,---,0.00,VWS V14.01,2013-05-17 18:57:00,
2013-05-17 14:06:00,79.3,62.3,29.97,SSE,161,6.0,15.0,56,0.00,,---,0.00,VWS V14.01,2013-05-17 19:06:00,
2013-05-17 14:12:00,79.3,62.3,29.97,SSE,158,12.0,15.0,56,0.00,,---,0.00,VWS V14.01,2013-05-17 19:12:00,
2013-05-17 14:21:00,79.3,62.8,29.97,SSW,211,2.0,12.0,57,0.00,,---,0.00,VWS V14.01,2013-05-17 19:21:00,
2013-05-17 14:27:00,79.7,62.1,29.96,SE,144,6.0,12.0,55,0.00,,---,0.00,VWS V14.01,2013-05-17 19:27:00,
2013-05-17 14:36:00,81.0,63.3,29.96,South,175,5.0,14.0,55,0.00,,---,0.00,VWS V14.01,2013-05-17 19:36:00,
2013-05-17 14:42:00,81.6,63.4,29.96,South,178,5.0,14.0,54,0.00,,---,0.00,VWS V14.01,2013-05-17 19:42:00,
2013-05-17 14:51:00,82.2,63.4,29.96,SSW,196,5.0,12.0,53,0.00,,---,0.00,VWS V14.01,2013-05-17 19:51:00,
2013-05-17 14:57:00,82.2,62.8,29.95,SSE,161,10.0,16.0,52,0.00,,---,0.00,VWS V14.01,2013-05-17 19:57:00,
2013-05-17 15:06:00,81.8,63.0,29.95,South,179,2.0,18.0,53,0.00,,---,0.00,VWS V14.01,2013-05-17 20:06:00,
2013-05-17 15:12:00,82.2,63.4,29.95,South,178,8.0,18.0,53,0.00,,---,0.00,VWS V14.01,2013-05-17 20:12:00,
2013-05-17 15:21:00,82.9,61.8,29.94,SE,132,6.0,16.0,49,0.00,,---,0.00,VWS V14.01,2013-05-17 20:21:00,
2013-05-17 15:27:00,82.7,61.6,29.94,SW,225,5.0,16.0,49,0.00,,---,0.00,VWS V14.01,2013-05-17 20:27:00,
2013-05-17 15:36:00,83.1,59.6,29.94,South,173,5.0,14.0,45,0.00,,---,0.00,VWS V14.01,2013-05-17 20:36:00,
2013-05-17 15:42:00,82.9,58.1,29.94,South,188,9.0,14.0,43,0.00,,---,0.00,VWS V14.01,2013-05-17 20:42:00,
2013-05-17 15:51:00,82.0,56.7,29.94,SSE,166,6.0,16.0,42,0.00,,---,0.00,VWS V14.01,2013-05-17 20:51:00,
2013-05-17 15:57:00,82.0,57.3,29.94,ESE,108,6.0,16.0,43,0.00,,---,0.00,VWS V14.01,2013-05-17 20:57:00,
2013-05-17 16:06:00,82.7,56.0,29.94,South,175,5.0,17.0,40,0.00,,---,0.00,VWS V14.01,2013-05-17 21:06:00,
2013-05-17 16:12:00,83.2,56.4,29.94,SSW,207,3.0,17.0,40,0.00,,---,0.00,VWS V14.01,2013-05-17 21:12:00,
2013-05-17 16:22:00,83.1,56.3,29.93,SSW,199,8.0,17.0,40,0.00,,---,0.00,VWS V14.01,2013-05-17 21:22:00,
2013-05-17 16:27:00,83.0,56.2,29.94,SSW,195,5.0,17.0,40,0.00,,---,0.00,VWS V14.01,2013-05-17 21:27:00,
2013-05-17 16:37:00,83.4,57.9,29.94,South,186,0.0,12.0,42,0.00,,---,0.00,VWS V14.01,2013-05-17 21:37:00,
2013-05-17 16:42:00,83.6,58.1,29.94,SW,229,3.0,13.0,42,0.00,,---,0.00,VWS V14.01,2013-05-17 21:42:00,
2013-05-17 16:52:00,83.6,58.8,29.94,SE,146,8.0,14.0,43,0.00,,---,0.00,VWS V14.01,2013-05-17 21:52:00,
2013-05-17 16:57:00,83.4,59.2,29.94,South,191,5.0,14.0,44,0.00,,---,0.00,VWS V14.01,2013-05-17 21:57:00,
2013-05-17 17:07:00,82.0,59.2,29.94,SSW,192,4.0,11.0,46,0.00,,---,0.00,VWS V14.01,2013-05-17 22:07:00,
2013-05-17 17:12:00,81.4,59.3,29.94,South,182,4.0,11.0,47,0.00,,---,0.00,VWS V14.01,2013-05-17 22:12:00,
2013-05-17 17:22:00,80.9,60.0,29.94,SSW,204,2.0,14.0,49,0.00,,---,0.00,VWS V14.01,2013-05-17 22:22:00,
2013-05-17 17:27:00,81.1,60.7,29.94,South,169,2.0,14.0,50,0.00,,---,0.00,VWS V14.01,2013-05-17 22:27:00,
2013-05-17 17:37:00,81.1,61.3,29.94,SSW,210,4.0,10.0,51,0.00,,---,0.00,VWS V14.01,2013-05-17 22:37:00,
2013-05-17 17:42:00,81.1,61.8,29.94,SSE,166,1.0,10.0,52,0.00,,---,0.00,VWS V14.01,2013-05-17 22:42:00,
2013-05-17 17:52:00,80.9,61.6,29.94,SSW,200,1.0,7.0,52,0.00,,---,0.00,VWS V14.01,2013-05-17 22:52:00,
2013-05-17 17:57:00,80.6,61.9,29.94,SSE,148,8.0,8.0,53,0.00,,---,0.00,VWS V14.01,2013-05-17 22:57:00,
2013-05-17 18:07:00,80.1,62.0,29.94,ENE,70,0.0,11.0,54,0.00,,---,0.00,VWS V14.01,2013-05-17 23:07:00,
2013-05-17 18:12:00,80.3,61.6,29.94,SSW,192,0.0,11.0,53,0.00,,---,0.00,VWS V14.01,2013-05-17 23:12:00,
2013-05-17 18:22:00,80.9,62.2,29.94,SE,136,5.0,9.0,53,0.00,,---,0.00,VWS V14.01,2013-05-17 23:22:00,
2013-05-17 18:27:00,81.1,61.8,29.94,SSE,150,1.0,9.0,52,0.00,,---,0.00,VWS V14.01,2013-05-17 23:27:00,
2013-05-17 18:37:00,80.9,61.6,29.94,SE,143,2.0,8.0,52,0.00,,---,0.00,VWS V14.01,2013-05-17 23:37:00,
2013-05-17 18:42:00,80.7,61.5,29.94,South,171,4.0,10.0,52,0.00,,---,0.00,VWS V14.01,2013-05-17 23:42:00,
2013-05-17 18:52:00,80.2,61.5,29.94,SE,141,2.0,8.0,53,0.00,,---,0.00,VWS V14.01,2013-05-17 23:52:00,
2013-05-17 18:57:00,80.1,61.4,29.94,SE,138,4.0,8.0,53,0.00,,---,0.00,VWS V14.01,2013-05-17 23:57:00,
2013-05-17 19:07:00,79.7,61.6,29.94,SE,126,5.0,8.0,54,0.00,,---,0.00,VWS V14.01,2013-05-18 00:07:00,
2013-05-17 19:12:00,79.1,61.6,29.95,SE,126,2.0,9.0,55,0.00,,---,0.00,VWS V14.01,2013-05-18 00:12:00,
2013-05-17 19:22:00,78.7,61.7,29.95,SE,132,4.0,9.0,56,0.00,,---,0.00,VWS V14.01,2013-05-18 00:22:00,
2013-05-17 19:27:00,78.4,61.9,29.95,South,182,4.0,9.0,57,0.00,,---,0.00,VWS V14.01,2013-05-18 00:27:00,
2013-05-17 19:37:00,77.1,63.1,29.96,South,169,4.0,18.0,62,0.00,,---,0.00,VWS V14.01,2013-05-18 00:37:00,
2013-05-17 19:42:00,76.0,63.0,29.96,SE,126,12.0,18.0,64,0.00,,---,0.00,VWS V14.01,2013-05-18 00:42:00,
2013-05-17 19:52:00,74.5,63.7,29.97,SSW,194,2.0,17.0,69,0.00,,---,0.00,VWS V14.01,2013-05-18 00:52:00,
2013-05-17 19:57:00,73.9,64.7,29.97,SSE,153,11.0,17.0,73,0.00,,---,0.00,VWS V14.01,2013-05-18 00:57:00,
2013-05-17 20:07:00,72.3,65.1,29.97,SSE,165,9.0,12.0,78,0.00,,---,0.00,VWS V14.01,2013-05-18 01:07:00,
2013-05-17 20:12:00,71.6,65.1,29.97,South,180,2.0,12.0,80,0.00,,---,0.00,VWS V14.01,2013-05-18 01:12:00,
2013-05-17 20:22:00,70.8,65.0,29.97,South,173,7.0,10.0,82,0.00,,---,0.00,VWS V14.01,2013-05-18 01:22:00,
2013-05-17 20:27:00,70.7,64.9,29.97,SE,146,5.0,12.0,82,0.00,,---,0.00,VWS V14.01,2013-05-18 01:27:00,
2013-05-17 20:37:00,70.5,65.1,29.97,SSE,155,2.0,9.0,83,0.00,,---,0.00,VWS V14.01,2013-05-18 01:37:00,
2013-05-17 20:42:00,70.6,65.2,29.97,SSE,160,0.0,9.0,83,0.00,,---,0.00,VWS V14.01,2013-05-18 01:42:00,
2013-05-17 20:52:00,70.5,65.1,29.98,SSE,148,2.0,7.0,83,0.00,,---,0.00,VWS V14.01,2013-05-18 01:52:00,
2013-05-17 20:57:00,70.6,65.2,29.98,South,171,0.0,7.0,83,0.00,,---,0.00,VWS V14.01,2013-05-18 01:57:00,
2013-05-17 21:07:00,70.6,65.2,29.98,SSE,159,0.0,6.0,83,0.00,,---,0.00,VWS V14.01,2013-05-18 02:07:00,
2013-05-17 21:15:00,70.6,65.2,29.99,SE,144,0.0,1.0,83,0.00,,---,0.00,VWS V14.01,2013-05-18 02:15:00,
2013-05-17 21:22:00,70.5,65.1,29.99,ENE,59,1.0,4.0,83,0.00,,---,0.00,VWS V14.01,2013-05-18 02:22:00,
2013-05-17 21:30:00,70.2,65.1,29.99,ESE,116,0.0,3.0,84,0.00,,---,0.00,VWS V14.01,2013-05-18 02:30:00,
2013-05-17 21:37:00,70.0,64.9,29.99,ESE,102,0.0,4.0,84,0.00,,---,0.00,VWS V14.01,2013-05-18 02:37:00,
2013-05-17 21:45:00,70.0,64.9,30.00,NE,53,0.0,4.0,84,0.00,,---,0.00,VWS V14.01,2013-05-18 02:45:00,
2013-05-17 21:52:00,70.0,64.3,30.00,East,90,0.0,5.0,82,0.00,,---,0.00,VWS V14.01,2013-05-18 02:52:00,
2013-05-17 22:00:00,70.0,64.6,30.00,ESE,121,0.0,6.0,83,0.00,,---,0.00,VWS V14.01,2013-05-18 03:00:00,
2013-05-17 22:07:00,70.0,64.6,30.00,SE,139,0.0,6.0,83,0.00,,---,0.00,VWS V14.01,2013-05-18 03:07:00,
2013-05-17 22:15:00,70.1,64.4,30.00,SE,127,5.0,7.0,82,0.00,,---,0.00,VWS V14.01,2013-05-18 03:15:00,
2013-05-17 22:22:00,70.2,64.4,30.00,SSE,152,1.0,7.0,82,0.00,,---,0.00,VWS V14.01,2013-05-18 03:22:00,
2013-05-17 22:30:00,70.2,64.4,30.00,East,91,4.0,5.0,82,0.00,,---,0.00,VWS V14.01,2013-05-18 03:30:00,
2013-05-17 22:37:00,70.2,64.4,30.00,East,97,0.0,5.0,82,0.00,,---,0.00,VWS V14.01,2013-05-18 03:37:00,
2013-05-17 22:45:00,70.2,64.4,30.00,SE,146,2.0,7.0,82,0.00,,---,0.00,VWS V14.01,2013-05-18 03:45:00,
2013-05-17 22:52:00,70.0,64.3,30.00,SSE,167,2.0,10.0,82,0.00,,---,0.00,VWS V14.01,2013-05-18 03:52:00,
2013-05-17 23:00:00,69.9,64.5,30.00,SE,135,0.0,6.0,83,0.00,,---,0.00,VWS V14.01,2013-05-18 04:00:00,
2013-05-17 23:07:00,69.7,64.3,30.00,SSE,167,4.0,7.0,83,0.00,,---,0.00,VWS V14.01,2013-05-18 04:07:00,
2013-05-17 23:12:00,69.6,64.2,30.00,SSE,153,2.0,7.0,83,0.00,,---,0.00,VWS V14.01,2013-05-18 04:12:00,
2013-05-17 23:15:00,69.6,64.2,30.00,South,180,0.0,6.0,83,0.00,,---,0.00,VWS V14.01,2013-05-18 04:15:00,
2013-05-17 23:22:00,69.4,64.4,30.00,SSE,153,5.0,8.0,84,0.00,,---,0.00,VWS V14.01,2013-05-18 04:22:00,
2013-05-17 23:27:00,69.2,64.2,30.00,ESE,115,4.0,8.0,84,0.00,,---,0.00,VWS V14.01,2013-05-18 04:27:00,
2013-05-17 23:37:00,68.9,63.9,30.00,SE,143,0.0,8.0,84,0.00,,---,0.00,VWS V14.01,2013-05-18 04:37:00,
2013-05-17 23:45:00,68.7,63.7,30.00,South,169,2.0,8.0,84,0.00,,---,0.00,VWS V14.01,2013-05-18 04:45:00,
2013-05-17 23:52:00,68.5,63.5,30.00,South,174,2.0,8.0,84,0.00,,---,0.00,VWS V14.01,2013-05-18 04:52:00,